Location: Catstown
(52.4386°N, 7.2633°W)
Time: 11:49:38
(UTC+00:00)

ATLAS 3B R/B - Pass Details

Date: 18 September 2020
Orbit: 1016 x 1179 km, 63.8° (Epoch: 04 October)

Event Time Altitude Azimuth Distance (km) Brightness Sun altitude
Rises 23:09:38 0° 313° (NW) 3,838 6.5 -34.0°
Reaches altitude 10° 23:12:27 10° 305° (NW) 2,902 5.6 -34.2°
Enters shadow 23:17:17 32° 263° (W) 1,765 3.8 -34.4°
